Tracking 27079 objects as of 24-Mar-2023
HD Live streaming from Space Station
objects crossing your sky now

SL-16 DEB

Track SL-16 DEB now!
10-day predictions


NORAD ID: 43354
Int'l Code: 1996-051P
Perigee: 788.5 km
Apogee: 922.7 km
Inclination: 71.2 °
Period: 101.9 minutes
Semi major axis: 7226 km
RCS: Unknown
Launch date: September 4, 1996
Source: Commonwealth of Independent States (former USSR) (CIS)
Launch site: TYURATAM MISSILE AND SPACE COMPLEX (TTMTR)

Note: This is SATELLITE DEBRIS
Your satellite tracking list
Your tracking list is empty




NASA's NSSDC Master Catalog

Two Line Element Set (TLE):
1 43354U 96051P   23082.71057597  .00000381  00000-0  21886-3 0  9996
2 43354  71.1879 241.2647 0092867 131.6969 229.2148 14.13193769101630
Source of the keplerian elements: AFSPC